AirNav   ATP
 
 1004 users online  

2J8 Pierson Municipal Airport
Pierson, Florida, USA

GOING TO PIERSON?


FAA INFORMATION EFFECTIVE 04 JANUARY 2018

Location

FAA Identifier: 2J8
Lat/Long: 29-15-00.1000N / 081-27-33.6000W
29-15.001667N / 081-27.560000W
29.2500278 / -81.4593333
(estimated)
Elevation: 63 ft. / 19.2 m (surveyed)
Variation: 03W (1985)
From city: 1 mile N of PIERSON, FL
Time zone: UTC -5 (UTC -4 during Daylight Saving Time)
Zip code: 32180

Airport Operations

Airport use: Open to the public
Activation date: 12/1946
Control tower: no
ARTCC: JACKSONVILLE CENTER
FSS: SAINT PETERSBURG FLIGHT SERVICE STATION
NOTAMs facility: PIE (NOTAM-D service available)
Attendance: UNATNDD
Wind indicator: yes
Segmented circle: no

Airport Communications

CTAF: 122.9
WX AWOS-3 at DED (14 nm SE): 119.575 (386-740-5811)
WX AWOS-3 at OMN (18 nm E): 118.475 (386-615-7084)
WX AWOS-3 at FIN (18 nm NE): 128.325 (386-437-7334)

Nearby radio navigation aids

VOR radial/distance  VOR name  Freq  Var
OMNr260/18.4ORMOND BEACH VORTAC112.6000E

 
NDB name  Hdg/Dist  Freq  Var  ID
LEESBURG039/31.733504WLEE .-.. . .

Airport Services

Parking: tiedowns
Airframe service: MINOR
Powerplant service: MINOR
Bottled oxygen: NONE
Bulk oxygen: NONE

Runway Information

Runway 5/23

Dimensions: 2600 x 200 ft. / 792 x 61 m
Surface: turf, in fair condition
Runway edge markings: BNDRY MARKERS (SINGLE YELLOW CONES) EVERY 200'.
RUNWAY 5  RUNWAY 23
Latitude: 29-14.854565N29-15.149782N
Longitude: 081-27.737928W081-27.382840W
Elevation: 59.0 ft.55.0 ft.
Gradient: 0.1%0.1%
Traffic pattern: leftright
Runway heading: 050 magnetic, 047 true230 magnetic, 227 true
Obstructions: 62 ft. pole, 1240 ft. from runway, 105 ft. left of centerline, 20:1 slope to clear
95 FT ANT 1900 FT FM RY END.
39 ft. trees, 818 ft. from runway, 62 ft. right of centerline, 21:1 slope to clear

Airport Ownership and Management from official FAA records

Ownership: Publicly-owned
Owner: TOWN OF PIERSON
106 NORTH CENTER STREET
PIERSON, FL 32180
Phone 904-749-2661
Manager: THOMAS LARRIVEE
305 NORTH CENTER ST.
PIERSON, FL 32180
Phone 386-749-2661

Airport Operational Statistics

Aircraft based on the field: 21
Single engine airplanes: 12
Gliders airplanes: 9
    
Aircraft operations: avg 38/day *
71% transient general aviation
29% local general aviation
* for 12-month period ending 19 September 2016

Additional Remarks

30 FT TREES + OR - 110 FT FM CNTRLN FULL LENGTH RY 05/23.
FOR CD OR TO CNL IFR CTC DAB APCH AT 386-226-3939.

Instrument Procedures

There are no published instrument procedures at 2J8.

Some nearby airports with instrument procedures:

KDED - DeLand Municipal Airport-Sidney H Taylor Field (14 nm SE)
KOMN - Ormond Beach Municipal Airport (18 nm E)
KFIN - Flagler Executive Airport (18 nm NE)
KDAB - Daytona Beach International Airport (21 nm E)
X23 - Umatilla Municipal Airport (22 nm SW)
 
Loc | Ops | Rwys | IFR | FBO | Links
Com | Nav | Svcs | Stats | Notes


 
Area around 2J8 (Pierson Municipal Airport)
 
Road maps at: MapQuest Bing Google
 
Aerial photo
WARNING: Photo may not be current or correct
Aerial photo of 2J8 (Pierson Municipal Airport)
Do you have a better or more recent aerial photo of Pierson Municipal Airport that you would like to share? If so, please send us your photo.

 
Sectional chart

 
Airport distance calculator
Flying to Pierson Municipal Airport? Find the distance to fly.

From to 2J8

Sunrise and sunset
Times for 21-Jan-2018
 Local
(UTC-5)
 Zulu
(UTC)
Morning civil twilight06:5511:55
Sunrise07:2112:21
Sunset17:5422:54
Evening civil twilight18:1923:19

Current date and time
Zulu (UTC)  22-Jan-2018 01:39:45
Local (UTC-5)  21-Jan-2018 20:39:45
 
METAR
KDED 
14nm SE 
220115Z AUTO 06003KT 10SM CLR 13/11 A3020 RMK AO2
KOMN 
18nm E 
212350Z 03003KT 7SM SKC 14/11 A3020 RMK LAST
KFIN 
18nm NE 
220055Z AUTO 03003KT 10SM CLR 13/12 A3020 RMK AO2 T01330115
KDAB 
21nm E 
220053Z 03004KT 10SM CLR 13/12 A3020 RMK AO2 SLP227 T01330122 $
7FL6 
24nm SE 
SuperAWOS
220055Z AUTO 00000KT 10SM 14/12 A3020
KVVG 
27nm SW 
220110Z AUTO 10SM 18/15 A3008 RMK A01
K28J 
27nm NW 
220115Z AUTO 08005KT 10SM BKN040 OVC046 14/09 A3020 RMK AO2
TAF
KDAB 
21nm E 
211735Z 2118/2218 36007KT P6SM SCT025 BKN120 FM220400 04004KT P6SM SKC FM220800 08003KT 3SM BR SCT008 FM221400 13008KT P6SM FEW020 BKN050
NOTAMs
Click for the latest NOTAMs
NOTAMs are issued by the DoD/FAA and will open in a separate window not controlled by AirNav.

 

 
 

Would you like to see your business listed on this page?

 If your business provides an interesting product or service to pilots, flight crews, aircraft, or users of the Pierson Municipal Airport, you should consider listing it here.  To start the listing process, click on the button below
 
Add a business
 

Other Pages about Pierson Municipal Airport

Update a link
 
Copyright © AirNav, LLC. All rights reserved. Privacy Policy  Contact